Miscellaneous Local Product
Issued by NWS Hastings, NE

Home | Current Version | Previous Version | Text Only | Print | Product List | Glossary On
Versions: 1 2 3 4 5 6 7 8 9 10 11 12 13 14 15 16 17 18 19 20 21 22 23 24 25 26 27 28 29 30 31 32 33 34 35 36 37 38 39 40 41 42 43 44 45 46 47 48 49 50
000
AXUS43 KGID 171602
MISGRI

GID CWA HOURLY WEATHER ROUNDUP
NATIONAL WEATHER SERVICE HASTINGS NE
1100 AM CDT THU AUG 17 2017

NOTE: "FAIR" INDICATES FEW OR NO CLOUDS BELOW 12,000 FEET WITH NO
SIGNIFICANT WEATHER AND/OR OBSTRUCTIONS TO VISIBILITY.

...SOUTH CENTRAL NEBRASKA...

CITY           SKY/WX    TMP DP  RH WIND       PRES   REMARKS
GRAND ISLAND   SUNNY     74  55  51 W10       30.02S
HASTINGS       SUNNY     74  54  49 W10       30.04S
KEARNEY        SUNNY     74  56  53 W10       30.05R
ORD            SUNNY     73  52  47 W8        30.00F
YORK           SUNNY     72  59  64 NW9       30.01S
AURORA         SUNNY     71  58  62 W3        30.02S
LEXINGTON      SUNNY     74  60  61 W10       30.06S
HOLDREGE       SUNNY     71  60  67 W9        30.07R
HEBRON         SUNNY     75  57  52 NW8       30.02R

...NEBRASKA PANHANDLE...

CITY           SKY/WX    TMP DP  RH WIND       PRES   REMARKS
CHADRON        SUNNY     75  52  44 SW7       29.99S
ALLIANCE       SUNNY     76  53  44 MISG      30.04F
SCOTTSBLUFF    SUNNY     72  55  55 E5        30.06R
SIDNEY         SUNNY     75  51  43 S14       30.11F

...WESTERN AND NORTH CENTRAL NEBRASKA...

CITY           SKY/WX    TMP DP  RH WIND       PRES   REMARKS
VALENTINE      SUNNY     76  55  48 SW3       30.00F
AINSWORTH      SUNNY     73  59  61 SW7       30.01F
ONEILL         SUNNY     72  57  59 NW7       30.00S
BROKEN BOW     SUNNY     74  59  59 W9        30.04S
IMPERIAL       SUNNY     77  58  51 SW10      30.09F
NORTH PLATTE   SUNNY     74  60  61 SW10      30.07S
MCCOOK         SUNNY     74  60  61 SW8       30.08F

...EASTERN NEBRASKA...

CITY           SKY/WX    TMP DP  RH WIND       PRES   REMARKS
NORFOLK        SUNNY     71  58  63 W13       29.97R
SO SIOUX CITY  SUNNY     73  61  65 NW21G31   29.89F
TEKAMAH        SUNNY     73  59  61 NW17G24   29.91S
COLUMBUS       SUNNY     72  59  63 NW10      29.99R
ALBION         SUNNY     74  56  52 NW10      29.99F
OMAHA EPPLEY   MOSUNNY   76  59  55 NW17      29.92R
OFFUTT AFB     SUNNY     76  58  51 NW15G21   29.92R
MILLARD        SUNNY     75  60  58 NW14G21   29.94R
LINCOLN        SUNNY     76  58  53 NW17      29.98R
NEBRASKA CITY  SUNNY     74  61  63 NW20      29.96R
BEATRICE       SUNNY     75  60  58 NW13      30.00R
FALLS CITY     SUNNY     75  60  59 NW18      29.95R

...NORTHERN KANSAS...

CITY           SKY/WX    TMP DP  RH WIND       PRES   REMARKS
GOODLAND       MOSUNNY   71  58  63 SW10      30.13S
HILL CITY      MOSUNNY   77  61  57 W10       30.08F
NORTON         SUNNY     75  55  50 SW10      30.07
PHILLIPSBURG   SUNNY     79  61  53 W8        30.06F
SMITH CENTER   SUNNY     73  63  68 W5        30.06S
HAYS           SUNNY     77  60  55 VRB5      30.08S
RUSSELL        SUNNY     78  62  57 W10       30.06S
CONCORDIA      SUNNY     75  59  57 W13       30.03R
SALINA         SUNNY     80  59  48 NW9       30.05R
TOPEKA         SUNNY     77  65  66 W6        29.98S



USA.gov is the U.S. government's official web portal to all federal, state and local government web resources and services.